Wind_Speed
47 49 48 46 46 46 45 45 45 44 45 46 46 45 44 43 43 42 41 40 39 37 37 37 36 35 35 34 34 34 33 33 33 32 32 32 33 33 33 34 34 34 34 35
48 48 46 47 47 47 47 46 46 46 46 47 47 47 45 44 43 42 41 41 40 39 38 38 37 36 35 35 35 35 34 34 33 32 33 33 33 33 33 34 34 35 35 35
47 46 46 47 47 48 48 46 45 45 46 47 48 48 46 45 44 44 42 41 41 39 38 38 38 37 36 36 35 35 35 34 34 34 33 34 34 34 34 34 34 35 35 36
48 47 47 48 48 48 47 45 45 45 46 47 48 48 45 43 44 43 42 41 40 39 38 38 37 37 36 36 36 36 36 35 35 35 35 34 34 34 34 34 34 35 36 36
47 47 47 48 47 47 47 45 45 45 46 48 48 49 47 44 43 42 41 41 40 39 38 38 37 37 37 36 36 36 36 36 36 36 36 35 35 35 35 35 35 36 36 37
43 45 46 46 46 46 46 46 45 46 46 49 47 49 48 44 41 40 40 40 40 39 38 38 38 37 37 36 36 36 36 36 36 36 37 36 36 36 36 36 36 36 37 38
41 42 44 46 47 47 47 46 46 47 48 49 46 48 48 43 41 40 39 39 39 39 39 38 38 37 37 36 36 37 37 37 37 37 37 37 37 37 37 37 38 38 39 40
39 40 41 44 46 46 47 46 46 47 48 47 46 47 46 43 41 39 39 39 39 39 39 38 37 37 37 37 37 37 37 37 38 38 38 38 39 39 39 39 39 40 41 42
39 39 40 41 43 44 46 46 45 45 47 47 47 47 45 43 41 40 39 39 39 39 38 38 37 37 37 37 37 37 37 38 38 39 39 40 40 40 40 40 41 42 42 43
37 38 39 40 42 44 44 45 44 45 46 47 47 46 44 41 40 40 39 38 38 39 38 38 38 37 37 37 37 37 37 38 38 39 40 40 41 41 41 41 42 42 43 44
35 37 38 39 41 41 42 44 45 45 46 46 46 45 42 40 39 38 38 37 37 38 38 38 38 37 37 37 37 37 37 38 38 38 39 39 40 41 42 41 41 42 43 44
33 35 37 38 38 40 41 41 42 44 45 45 45 43 40 39 38 37 37 37 37 37 37 37 36 36 37 37 36 36 37 37 38 38 39 39 40 40 41 41 42 42 43 43
32 34 35 37 38 40 41 40 41 42 43 44 44 43 40 38 37 36 35 35 36 37 37 36 36 36 36 36 36 36 37 37 38 38 39 39 39 39 40 41 42 42 43 44
32 32 33 35 36 37 39 40 40 41 42 43 43 42 40 38 37 36 36 36 35 35 36 36 36 37 37 37 36 36 37 38 38 39 39 40 39 40 39 40 42 43 44 44
33 33 32 33 34 35 37 39 40 41 42 43 41 40 39 38 37 36 36 35 35 34 34 35 35 36 37 37 37 36 37 38 38 39 40 40 40 40 41 41 43 44 44 44
33 33 33 33 34 35 37 37 37 39 40 41 42 41 39 39 38 37 36 36 36 35 35 35 36 36 37 37 37 37 37 38 39 40 40 41 41 41 42 42 43 43 44 45
33 33 33 33 32 34 35 35 35 37 38 39 40 39 38 39 38 37 36 36 35 36 35 35 35 36 37 38 38 38 39 39 40 40 40 41 41 42 42 42 42 43 44 44
31 33 31 31 31 33 33 33 35 35 36 37 37 37 37 37 37 37 36 36 35 36 36 35 35 35 36 36 37 38 39 40 40 41 41 42 42 42 42 42 42 43 43 43
27 28 30 29 29 31 31 32 32 34 34 35 36 37 37 37 38 37 37 37 37 37 36 36 35 35 36 36 37 38 38 38 39 40 41 41 41 41 41 42 41 41 42 42
25 27 28 30 29 29 29 29 30 32 34 35 35 36 36 37 38 37 37 37 37 37 36 36 37 37 37 37 37 37 37 38 38 39 40 40 39 40 40 40 40 40 40 41
21 25 26 28 29 28 27 28 28 30 31 32 33 34 35 35 36 36 37 37 37 36 36 36 36 36 37 37 37 37 37 38 38 38 39 38 38 38 38 38 38 39 39 39
17 21 24 26 27 27 26 26 27 27 27 30 31 32 33 33 34 35 35 35 35 35 35 35 35 35 35 35 36 36 36 36 36 37 37 37 37 37 37 37 37 38 39 39
15 18 20 23 24 23 24 25 25 26 27 27 29 31 32 32 32 32 32 33 32 33 33 33 33 33 33 34 34 34 35 35 35 35 35 35 36 36 36 36 37 38 38 39
14 15 18 19 20 21 23 24 25 26 26 27 28 29 30 30 30 31 32 33 33 33 33 33 33 33 33 33 32 33 33 33 33 34 34 35 36 36 36 36 37 38 38 39
12 14 16 18 19 20 22 22 23 23 24 24 25 26 27 29 30 30 31 31 32 32 32 33 33 33 33 33 33 32 32 33 33 34 34 34 35 35 36 37 37 38 38 38
11 13 16 16 17 19 20 21 21 22 23 24 24 26 26 27 28 28 29 30 31 31 32 32 32 32 32 32 32 32 33 33 34 34 34 34 35 35 36 36 37 37 37 38
Wind_Direction
232 232 232 233 234 235 235 235 235 235 235 236 237 236 235 236 236 237 238 239 240 241 242 243 244 245 246 247 248 249 250 252 254 256 258 260 261 262 264 265 267 268 269 270
231 232 232 232 233 233 234 234 234 235 235 237 237 236 235 236 237 238 238 239 240 241 242 244 245 245 246 248 249 249 250 252 254 255 257 259 261 263 264 266 267 268 269 272
232 232 232 232 232 232 233 234 235 236 236 237 238 236 235 236 237 237 238 239 240 241 242 243 244 245 246 248 249 250 250 252 254 256 257 259 261 263 265 266 268 269 271 273
231 229 230 231 231 232 233 234 235 236 237 237 238 238 234 235 236 237 238 239 240 241 241 242 244 245 246 247 248 249 250 252 254 255 257 259 261 263 265 267 268 270 272 274
231 230 229 230 230 232 233 233 235 236 237 237 237 239 234 234 235 237 238 239 239 240 241 242 243 245 245 247 248 249 250 251 253 254 256 258 260 262 265 267 269 271 273 274
230 230 230 229 228 230 231 232 234 236 237 237 236 239 237 235 235 236 238 239 239 240 240 241 242 244 245 247 248 249 250 251 252 254 256 258 260 263 265 267 269 271 273 274
228 228 229 228 227 227 228 230 233 235 235 237 237 239 239 236 235 235 237 238 238 239 240 241 242 244 245 247 248 249 250 251 253 255 256 258 261 263 265 267 269 271 273 274
228 228 228 228 227 228 229 230 232 235 237 238 238 239 238 237 236 236 236 237 238 238 240 241 242 244 245 247 249 250 251 252 254 255 257 259 261 263 265 267 269 271 273 275
230 230 229 229 228 228 227 228 232 236 238 239 239 239 238 238 238 237 237 237 238 239 240 242 243 244 246 247 249 251 253 255 255 256 258 259 261 263 265 267 269 271 274 277
231 231 229 230 229 229 228 229 230 233 236 238 240 240 239 239 239 239 238 238 238 239 240 242 243 245 246 248 250 251 254 256 256 257 258 259 261 263 265 267 270 272 275 277
230 231 229 229 229 229 228 228 230 233 236 237 239 240 240 240 240 239 238 238 239 240 240 241 243 244 246 247 250 252 254 255 256 257 258 260 262 264 265 267 270 273 276 279
228 230 230 229 229 229 228 229 230 231 233 236 238 239 239 240 240 239 239 239 239 239 241 242 243 244 245 247 250 253 253 255 256 257 258 260 262 264 266 267 270 273 276 279
226 228 228 228 228 227 227 228 229 231 233 235 236 238 237 240 241 240 240 240 239 240 240 241 243 244 245 248 251 253 253 255 256 258 259 261 263 264 266 268 270 273 276 278
226 227 228 230 229 227 228 228 228 228 230 233 235 236 236 238 240 240 240 240 240 240 241 242 243 245 247 249 251 253 254 256 257 259 260 262 263 264 267 269 272 273 276 279
227 226 226 227 227 226 226 227 228 228 229 232 233 234 233 235 236 238 239 239 240 241 242 243 244 246 248 250 252 254 256 257 258 260 261 262 263 265 267 270 273 274 276 279
226 226 226 227 227 227 227 225 227 228 229 231 233 233 233 233 235 237 239 240 240 241 243 244 246 247 248 250 253 255 257 258 258 259 260 262 264 266 269 272 274 275 277 279
227 226 227 228 228 228 229 225 226 229 229 230 232 232 233 233 234 236 238 240 241 241 243 245 246 248 249 252 254 256 258 258 258 258 260 262 264 267 270 271 274 276 278 280
226 226 228 228 227 229 229 226 227 229 229 229 231 231 231 233 234 236 237 239 241 242 244 246 247 249 251 253 255 257 259 259 259 260 261 263 265 267 269 272 274 276 278 280
226 227 227 226 227 230 229 227 227 229 230 230 231 231 232 233 233 235 237 239 241 243 245 246 248 250 253 255 257 258 260 261 261 261 263 264 266 267 269 272 274 276 278 280
228 228 228 226 227 229 228 228 229 230 231 230 232 233 235 236 236 237 238 240 242 244 247 248 250 253 255 258 259 259 260 261 262 262 263 264 266 267 269 271 274 277 279 281
229 228 227 228 229 231 230 231 231 232 231 231 232 234 236 237 238 238 239 240 243 245 247 249 252 254 257 259 259 260 260 261 262 263 263 264 266 267 270 272 275 278 281 284
228 226 226 226 228 229 229 232 232 233 232 231 231 232 234 235 237 237 238 240 243 245 247 249 251 254 256 258 258 259 260 261 262 263 263 265 266 268 271 274 277 280 283 285
227 224 225 226 226 227 228 231 233 233 233 232 231 231 232 233 234 235 236 238 241 243 245 248 251 253 256 256 257 259 260 261 262 262 263 265 267 269 271 274 277 280 282 285
228 225 223 223 224 226 227 228 231 232 233 234 233 231 230 230 232 234 236 238 241 243 246 249 251 253 255 256 258 258 260 261 262 263 265 267 269 270 272 275 278 281 283 285
231 226 226 227 228 229 228 229 231 231 230 230 230 229 228 230 233 235 238 240 242 244 246 249 251 254 256 256 257 259 260 261 263 265 267 269 271 272 274 277 279 282 284 287
239 233 232 233 233 232 228 228 231 232 230 228 229 229 230 232 235 237 240 243 245 246 248 250 252 255 256 257 257 258 260 262 265 267 268 269 271 273 275 278 280 283 285 286
Height
5640 5646 5653 5661 5666 5671 5676 5681 5686 5691 5695 5698 5703 5708 5714 5717 5721 5726 5730 5734 5738 5742 5745 5748 5751 5754 5756 5758 5760 5762 5764 5766 5768 5769 5770 5771 5772 5772 5773 5773 5773 5773 5773 5773
5629 5636 5646 5649 5654 5659 5664 5669 5675 5681 5684 5688 5693 5698 5704 5708 5713 5717 5722 5726 5730 5733 5737 5740 5743 5746 5748 5751 5753 5755 5757 5758 5760 5762 5763 5763 5764 5765 5765 5765 5765 5765 5765 5765
5619 5630 5634 5638 5643 5648 5654 5660 5666 5671 5674 5677 5682 5687 5694 5700 5704 5708 5713 5717 5721 5725 5729 5731 5735 5738 5740 5743 5745 5747 5749 5751 5752 5754 5755 5755 5756 5757 5757 5757 5757 5757 5757 5756
5608 5616 5621 5626 5632 5638 5645 5651 5655 5659 5663 5667 5672 5676 5686 5691 5695 5699 5704 5708 5712 5716 5720 5723 5726 5729 5732 5734 5736 5738 5740 5742 5744 5745 5746 5747 5748 5749 5750 5749 5749 5749 5748 5748
5598 5604 5610 5616 5624 5629 5635 5641 5645 5648 5652 5656 5661 5665 5675 5681 5686 5691 5695 5700 5703 5707 5711 5714 5717 5720 5723 5725 5728 5730 5732 5734 5735 5737 5738 5739 5740 5741 5741 5741 5741 5740 5740 5739
5587 5593 5599 5607 5614 5618 5624 5630 5634 5637 5640 5644 5653 5656 5663 5672 5678 5683 5687 5690 5694 5698 5702 5705 5708 5711 5714 5716 5719 5721 5723 5725 5726 5728 5729 5730 5731 5732 5732 5732 5732 5732 5731 5730
5577 5582 5588 5595 5601 5607 5613 5619 5623 5625 5628 5635 5644 5646 5654 5663 5669 5673 5677 5681 5685 5689 5692 5696 5699 5702 5705 5708 5710 5712 5714 5716 5717 5719 5720 5721 5722 5722 5723 5723 5723 5722 5722 5720
5568 5574 5580 5585 5591 5598 5604 5609 5614 5618 5622 5628 5632 5636 5646 5653 5658 5663 5667 5671 5675 5679 5683 5687 5690 5693 5696 5699 5701 5703 5705 5706 5708 5709 5710 5711 5712 5712 5713 5713 5713 5712 5711 5710
5559 5565 5571 5576 5582 5588 5593 5598 5605 5609 5613 5618 5622 5629 5637 5642 5648 5653 5658 5662 5666 5670 5674 5677 5681 5684 5687 5689 5691 5693 5695 5696 5697 5699 5700 5701 5701 5702 5703 5703 5703 5702 5701 5699
5550 5556 5562 5567 5572 5578 5584 5590 5595 5598 5603 5607 5613 5620 5627 5633 5638 5644 5649 5653 5657 5661 5665 5668 5671 5674 5677 5679 5681 5683 5684 5685 5686 5687 5689 5689 5690 5691 5692 5692 5692 5691 5690 5689
5543 5548 5554 5558 5563 5569 5575 5581 5585 5590 5594 5600 5605 5614 5619 5624 5629 5634 5639 5643 5647 5651 5655 5658 5662 5665 5667 5669 5671 5673 5674 5675 5676 5677 5678 5679 5680 5680 5681 5681 5681 5680 5679 5677
5535 5540 5544 5550 5555 5560 5566 5571 5576 5581 5586 5591 5597 5607 5610 5615 5620 5624 5629 5633 5637 5641 5645 5649 5652 5655 5657 5660 5662 5663 5664 5665 5666 5667 5668 5669 5669 5669 5670 5670 5669 5669 5668 5666
5528 5532 5536 5541 5547 5551 5556 5562 5567 5572 5577 5582 5588 5598 5602 5606 5611 5615 5620 5624 5628 5632 5635 5639 5642 5645 5648 5650 5652 5653 5654 5655 5656 5657 5658 5658 5659 5659 5659 5659 5658 5658 5656 5655
5520 5524 5529 5534 5538 5543 5548 5554 5559 5563 5567 5573 5580 5587 5593 5598 5602 5606 5611 5615 5619 5622 5626 5629 5633 5635 5638 5640 5642 5643 5644 5645 5646 5647 5648 5648 5649 5649 5648 5648 5647 5646 5645 5643
5512 5516 5520 5525 5529 5534 5539 5545 5550 5555 5560 5565 5572 5577 5584 5588 5593 5597 5601 5606 5610 5613 5617 5620 5623 5626 5628 5630 5632 5633 5634 5635 5636 5637 5637 5638 5639 5638 5638 5637 5636 5635 5634 5632
5504 5509 5513 5517 5522 5526 5531 5537 5542 5546 5552 5557 5562 5568 5574 5579 5584 5588 5592 5596 5600 5604 5607 5610 5613 5616 5618 5620 5622 5624 5625 5625 5626 5627 5627 5628 5628 5628 5627 5627 5625 5624 5622 5620
5497 5502 5506 5511 5515 5518 5523 5530 5534 5539 5543 5549 5553 5561 5565 5569 5574 5579 5583 5587 5591 5594 5598 5601 5604 5606 5608 5610 5612 5614 5615 5615 5616 5616 5617 5618 5618 5617 5617 5616 5615 5613 5611 5608
5492 5495 5499 5503 5508 5512 5519 5523 5527 5530 5535 5541 5546 5551 5556 5561 5565 5570 5574 5578 5581 5585 5588 5592 5594 5596 5598 5600 5602 5603 5604 5605 5605 5606 5607 5607 5607 5607 5606 5605 5604 5602 5600 5598
5486 5490 5493 5498 5501 5505 5511 5515 5519 5523 5528 5533 5537 5542 5547 5552 5556 5561 5565 5568 5572 5576 5579 5582 5584 5587 5589 5590 5592 5593 5594 5594 5595 5596 5596 5596 5596 5596 5595 5594 5593 5591 5590 5587
5481 5484 5488 5492 5495 5499 5505 5508 5512 5516 5520 5525 5529 5534 5538 5543 5548 5553 5556 5559 5563 5566 5569 5572 5575 5577 5579 5580 5582 5583 5584 5584 5585 5585 5586 5586 5586 5586 5585 5584 5583 5582 5580 5577
5476 5479 5482 5486 5489 5493 5498 5501 5505 5510 5514 5518 5522 5526 5530 5534 5539 5544 5547 5551 5554 5557 5560 5563 5565 5567 5569 5570 5572 5573 5573 5574 5574 5575 5575 5575 5575 5575 5575 5574 5573 5572 5570 5568
5472 5474 5477 5481 5484 5490 5492 5495 5499 5502 5506 5510 5513 5517 5522 5526 5530 5534 5538 5542 5545 5548 5551 5553 5556 5558 5559 5560 5561 5562 5563 5564 5565 5565 5565 5565 5566 5565 5565 5564 5563 5562 5560 5558
5468 5471 5473 5476 5481 5483 5485 5489 5492 5496 5499 5503 5506 5510 5514 5518 5521 5525 5529 5533 5536 5539 5542 5544 5546 5548 5550 5551 5552 5553 5554 5555 5555 5556 5556 5556 5556 5556 5555 5555 5554 5552 5550 5548
5465 5466 5469 5471 5474 5477 5480 5483 5486 5489 5492 5495 5499 5503 5506 5510 5514 5518 5521 5525 5528 5530 5533 5535 5538 5539 5541 5542 5543 5544 5545 5546 5546 5546 5546 5547 5546 5546 5545 5545 5544 5542 5540 5538
5461 5463 5465 5467 5470 5472 5475 5478 5481 5483 5486 5489 5492 5496 5499 5503 5507 5510 5513 5516 5519 5522 5524 5526 5529 5530 5532 5533 5534 5535 5536 5537 5537 5537 5537 5537 5537 5536 5536 5535 5534 5532 5530 5528
5458 5460 5462 5463 5466 5468 5470 5473 5476 5478 5481 5484 5487 5490 5493 5496 5499 5502 5505 5508 5511 5513 5516 5518 5520 5521 5523 5524 5525 5526 5527 5528 5528 5528 5528 5528 5527 5527 5526 5525 5524 5522 5520 5518